Weather History for LEBL - March, 2013

Change the Weather History Date:

Sunday, March 10, 2013

  Actual Average Record
Temperature  
Mean Temperature 60 °F -  
Max Temperature 67 °F 60 °F 67 °F (2013)
Min Temperature 52 °F 46 °F 39 °F (2005)
Degree Days  
Heating Degree Days 6    
Growing Degree Days 10 (Base 50)    
Moisture  
Dew Point 46 °F    
Average Humidity 64    
Maximum Humidity 94    
Minimum Humidity 25    
Precipitation  
Precipitation 0.00 in 0.06 in - ()
Sea Level Pressure  
Sea Level Pressure 29.58 in    
Wind  
Wind Speed 10 mph ()    
Max Wind Speed 28 mph    
Max Gust Speed -    
Visibility 7.0 miles    
Events      
Averages and records for this station are not official NWS values.
T = Trace of Precipitation, MM = Missing Value Source: Averaged Metar Reports

Daily Weather History Graph

Daily Weather History Graph

Search for Another Location

Airport or City:

Trip Planner

Search our weather history database for the weather conditions in past years. The results will help you decide how hot, cold, wet, or windy it might be!

Date:

Astronomy

Mar. 10, 2013 Rise Set
Actual Time 7:11 AM CET 6:52 PM CET
Civil Twilight 6:44 AM CET 7:20 PM CET
Nautical Twilight 6:12 AM CET 7:52 PM CET
Astronomical Twilight 5:40 AM CET 8:24 PM CET
Moon 6:03 AM CET (3/10) 5:43 PM CET (3/10)
Length of Visible Light 12h 36m
Length of Day
11h 41m
Waning Crescent, 2% of the Moon is Illuminated
Mar 10
Waning Crescent
Mar 11
New
Mar 19
First Quarter
Mar 27
Full
Apr 3
Last Quarter

Hourly Weather History & Observations

Time (CET) Temp. Dew Point Humidity Pressure Visibility Wind Dir Wind Speed Gust Speed Precip Events Conditions
12:00 AM 55.4 °F 51.8 °F 88% 29.65 in 6.2 mi WSW 5.8 mph - N/A   Partly Cloudy
12:30 AM 55.4 °F 53.6 °F 94% 29.65 in 6.2 mi SW 5.8 mph - N/A   Partly Cloudy
1:00 AM 54 °F 51 °F 88% 29.65 in 12 mi North 1.2 mph - -   Scattered Clouds
1:00 AM 53.6 °F 51.8 °F 94% 29.65 in 6.2 mi WNW 2.3 mph - N/A   Partly Cloudy
1:30 AM 53.6 °F 48.2 °F 82% 29.62 in 6.2 mi NW 5.8 mph - N/A   Partly Cloudy
2:00 AM 55.4 °F 44.6 °F 67% 29.62 in 6.2 mi NNW 6.9 mph - N/A   Partly Cloudy
2:30 AM 55.4 °F 44.6 °F 67% 29.62 in 6.2 mi NNE 5.8 mph - N/A   Partly Cloudy
3:00 AM 55.4 °F 44.6 °F 67% 29.59 in 6.2 mi NNE 2.3 mph - N/A   Partly Cloudy
3:30 AM 55.4 °F 44.6 °F 67% 29.59 in 6.2 mi NW 4.6 mph - N/A   Partly Cloudy
4:00 AM 55.4 °F 44.6 °F 67% 29.59 in 6.2 mi NNW 9.2 mph - N/A   Partly Cloudy
4:30 AM 55.4 °F 44.6 °F 67% 29.56 in 6.2 mi NW 9.2 mph - N/A   Partly Cloudy
5:00 AM 53.6 °F 44.6 °F 72% 29.56 in 6.2 mi NW 12.7 mph - N/A   Partly Cloudy
5:30 AM 53.6 °F 44.6 °F 72% 29.56 in 6.2 mi NNW 9.2 mph - N/A   Partly Cloudy
6:00 AM 53.6 °F 44.6 °F 72% 29.56 in 6.2 mi NW 10.4 mph - N/A   Partly Cloudy
6:30 AM 53.6 °F 44.6 °F 72% 29.56 in 6.2 mi WNW 8.1 mph - N/A   Partly Cloudy
7:00 AM 53 °F 43 °F 58% 29.59 in 16 mi NE 3.5 mph - -   Scattered Clouds
7:00 AM 53.6 °F 44.6 °F 72% 29.56 in 6.2 mi WNW 5.8 mph - N/A   Partly Cloudy
7:30 AM 53.6 °F 42.8 °F 67% 29.56 in 6.2 mi WNW 5.8 mph - N/A   Partly Cloudy
8:00 AM 55.4 °F 42.8 °F 63% 29.56 in 6.2 mi NW 10.4 mph - N/A   Partly Cloudy
8:30 AM 57.2 °F 44.6 °F 63% 29.59 in 6.2 mi WNW 11.5 mph - N/A   Partly Cloudy
9:00 AM 59.0 °F 42.8 °F 55% 29.59 in 6.2 mi West 11.5 mph - N/A   Partly Cloudy
9:30 AM 60.8 °F 42.8 °F 52% 29.59 in 6.2 mi West 8.1 mph - N/A   Partly Cloudy
10:00 AM 60.8 °F 44.6 °F 55% 29.59 in 6.2 mi WSW 11.5 mph - N/A   Partly Cloudy
10:30 AM 62.6 °F 42.8 °F 48% 29.59 in 6.2 mi SW 15.0 mph - N/A   Partly Cloudy
11:00 AM 64.4 °F 41.0 °F 42% 29.59 in 6.2 mi West 17.3 mph - N/A   Partly Cloudy
11:30 AM 66.2 °F 37.4 °F 35% 29.59 in 6.2 mi West 12.7 mph - N/A   Partly Cloudy
12:00 PM 64.4 °F 46.4 °F 52% 29.59 in 6.2 mi West 16.1 mph - N/A   Partly Cloudy
12:30 PM 64.4 °F 46.4 °F 52% 29.59 in 6.2 mi SW 16.1 mph - N/A   Partly Cloudy
1:00 PM 67 °F 40 °F 25% 29.60 in 19 mi West 16.1 mph - -   Scattered Clouds
1:00 PM 66.2 °F 41.0 °F 40% 29.59 in 6.2 mi WNW 17.3 mph - N/A   Partly Cloudy
1:30 PM 64.4 °F 46.4 °F 52% 29.59 in 6.2 mi WSW 20.7 mph - N/A   Partly Cloudy
2:00 PM 64.4 °F 46.4 °F 52% 29.56 in 6.2 mi SW 23.0 mph - N/A   Scattered Clouds
2:30 PM 64.4 °F 46.4 °F 52% 29.56 in 6.2 mi WSW 25.3 mph - N/A   Scattered Clouds
3:00 PM 62.6 °F 48.2 °F 59% 29.56 in 6.2 mi SW 21.9 mph - N/A   Scattered Clouds
3:30 PM 62.6 °F 46.4 °F 55% 29.56 in 6.2 mi SW 18.4 mph - N/A   Scattered Clouds
4:00 PM 59.0 °F 48.2 °F 67% 29.56 in 6.2 mi SW 27.6 mph - N/A   Scattered Clouds
4:30 PM 60.8 °F 48.2 °F 63% 29.56 in 6.2 mi SW 26.5 mph - N/A   Scattered Clouds
5:00 PM 60.8 °F 48.2 °F 63% 29.56 in 6.2 mi SW 27.6 mph - N/A   Partly Cloudy
5:30 PM 60.8 °F 48.2 °F 63% 29.56 in 6.2 mi WSW 25.3 mph - N/A   Partly Cloudy
6:00 PM 60.8 °F 46.4 °F 59% 29.56 in 6.2 mi WSW 23.0 mph - N/A   Partly Cloudy
6:30 PM 59.0 °F 48.2 °F 67% 29.56 in 6.2 mi SW 20.7 mph - N/A   Partly Cloudy
7:00 PM 58 °F 45 °F 51% 29.58 in 16 mi WSW 16.1 mph - -   Scattered Clouds
7:00 PM 59.0 °F 46.4 °F 63% 29.56 in 6.2 mi SW 21.9 mph - N/A   Partly Cloudy
7:30 PM 59.0 °F 46.4 °F 63% 29.56 in 6.2 mi WSW 18.4 mph - N/A   Partly Cloudy
8:00 PM 59.0 °F 46.4 °F 63% 29.59 in 6.2 mi SW 15.0 mph - N/A   Partly Cloudy
8:30 PM 57.2 °F 48.2 °F 72% 29.59 in - WSW 16.1 mph - N/A   Clear
9:00 PM 57.2 °F 50.0 °F 77% 29.59 in - WSW 11.5 mph - N/A   Clear
9:30 PM 57.2 °F 50.0 °F 77% 29.59 in - SW 9.2 mph - N/A   Clear
10:00 PM 55.4 °F 50.0 °F 82% 29.59 in 6.2 mi WSW 8.1 mph - N/A   Partly Cloudy
10:30 PM 55.4 °F 46.4 °F 72% 29.59 in 6.2 mi West 4.6 mph - N/A   Partly Cloudy
11:00 PM 57.2 °F 44.6 °F 63% 29.59 in 6.2 mi SW 4.6 mph - N/A   Partly Cloudy
11:30 PM 57.2 °F 42.8 °F 59% 29.59 in 6.2 mi SW 6.9 mph - N/A   Partly Cloudy